This is the latest recevied weather packets stored in our database for station/object SV4JYD-13. If no packets are shown the sender has not sent any weather packets the latest 10 day(s).
| Time | Temp. | Humidity | Pressure | Rain* | Wind** | Luminosity | Snow |
|---|---|---|---|---|---|---|---|
| 1777766156 | 8.33° C | 97% | 1019 hPa | 0 mm | - | - | - |
| 1777765255 | 8.89° C | 94% | 1019 hPa | 0 mm | - | - | - |
| 1777764355 | 10° C | 86% | 1019 hPa | 0 mm | - | - | - |
| 1777763455 | 10° C | 88% | 1019 hPa | 0 mm | - | - | - |
| 1777762555 | 10° C | 88% | 1019 hPa | 0 mm | - | - | - |
| 1777761654 | 10° C | 87% | 1019 hPa | 0 mm | - | - | - |
| 1777760754 | 10° C | 85% | 1020 hPa | 0 mm | - | - | - |
| 1777759854 | 10° C | 84% | 1020 hPa | 0 mm | - | - | - |
| 1777758954 | 10° C | 83% | 1020 hPa | 0 mm | - | - | - |
| 1777758053 | 10° C | 84% | 1020 hPa | 0 mm | - | - | - |
| 1777757153 | 10° C | 86% | 1020 hPa | 0 mm | - | - | - |
| 1777756253 | 10° C | 85% | 1020 hPa | 0 mm | - | - | - |
| 1777755353 | 10.56° C | 81% | 1020 hPa | 0 mm | - | - | - |
| 1777754453 | 10.56° C | 78% | 1020 hPa | 0 mm | - | - | - |
| 1777753552 | 10.56° C | 78% | 1020 hPa | 0 mm | - | - | - |
| 1777752652 | 10.56° C | 77% | 1020 hPa | 0 mm | - | - | - |
| 1777751752 | 11.11° C | 76% | 1020 hPa | 0 mm | - | - | - |
| 1777750851 | 11.11° C | 75% | 1020 hPa | 0 mm | - | - | - |
| 1777749952 | 11.11° C | 70% | 1020 hPa | 0 mm | - | - | - |
| 1777749744 | 11.11° C | 70% | 1020 hPa | 0 mm | - | - | - |
| 1777748844 | 11.67° C | 68% | 1020 hPa | 0 mm | - | - | - |
| 1777747943 | 12.22° C | 65% | 1020 hPa | 0 mm | - | - | - |
| 1777747043 | 12.78° C | 57% | 1020 hPa | 0 mm | - | - | - |
| 1777746143 | 12.78° C | 55% | 1020 hPa | 0 mm | - | - | - |
| 1777745243 | 12.78° C | 57% | 1020 hPa | 0 mm | - | - | - |
* Rain latest hour (hover to see other rain measurements)
** Current wind speed in m/s (hover to see current wind gust speed)